This is the latest recevied weather packets stored in our database for station/object K8RRT. If no packets are shown the sender has not sent any weather packets the latest 10 day(s).
| Time | Temp. | Humidity | Pressure | Rain* | Wind** | Luminosity | Snow |
|---|---|---|---|---|---|---|---|
| 1777385588 | 18.33° C | 85% | 1010.6 hPa | 0 mm | - | 285 W/m² | - |
| 1777385286 | 17.78° C | 85% | 1010.7 hPa | 0 mm | - | 293 W/m² | - |
| 1777384981 | 18.33° C | 85% | 1010.6 hPa | 0 mm | - | 419 W/m² | - |
| 1777384679 | 17.78° C | 86% | 1010.7 hPa | 0 mm | - | 509 W/m² | - |
| 1777384378 | 17.78° C | 85% | 1010.6 hPa | 0 mm | - | 431 W/m² | - |
| 1777384074 | 17.78° C | 86% | 1010.7 hPa | 0 mm | - | 383 W/m² | - |
| 1777383770 | 17.22° C | 87% | 1010.8 hPa | 0 mm | - | 304 W/m² | - |
| 1777383467 | 17.22° C | 87% | 1010.6 hPa | 0 mm | - | 281 W/m² | - |
| 1777383163 | 17.22° C | 87% | 1010.7 hPa | 0 mm | - | 292 W/m² | - |
| 1777382860 | 16.67° C | 86% | 1010.4 hPa | 0 mm | - | 281 W/m² | - |
| 1777382555 | 16.67° C | 87% | 1010.6 hPa | 0 mm | - | 371 W/m² | - |
| 1777382252 | 16.67° C | 88% | 1010.6 hPa | 0 mm | - | 329 W/m² | - |
| 1777381948 | 16.11° C | 89% | 1010.4 hPa | 0 mm | - | 321 W/m² | - |
| 1777381648 | 16.11° C | 89% | 1010.4 hPa | 0 mm | - | 252 W/m² | - |
| 1777381344 | 15.56° C | 90% | 1010.7 hPa | 0 mm | - | 234 W/m² | - |
| 1777381040 | 15.56° C | 91% | 1010.6 hPa | 0 mm | - | 218 W/m² | - |
| 1777380737 | 15.56° C | 91% | 1010.3 hPa | 0 mm | - | 163 W/m² | - |
| 1777380434 | 15.56° C | 91% | 1010.5 hPa | 0 mm | - | 133 W/m² | - |
| 1777380131 | 15° C | 91% | 1010.2 hPa | 0 mm | - | 109 W/m² | - |
| 1777379826 | 15° C | 91% | 1010.4 hPa | 0 mm | - | 99 W/m² | - |
| 1777379523 | 15° C | 91% | 1010.1 hPa | 0 mm | - | 95 W/m² | - |
| 1777379217 | 15° C | 92% | 1010.2 hPa | 0 mm | - | 92 W/m² | - |
| 1777378912 | 15° C | 92% | 1010 hPa | 0 mm | - | 95 W/m² | - |
| 1777378609 | 15° C | 91% | 1010 hPa | 0 mm | - | 87 W/m² | - |
| 1777378305 | 15° C | 91% | 1010 hPa | 0 mm | - | 70 W/m² | - |
* Rain latest hour (hover to see other rain measurements)
** Current wind speed in m/s (hover to see current wind gust speed)